Time,TemperatureF,DewpointF,PressureIn,WindDirection,WindDirectionDegrees,WindSpeedMPH,WindSpeedGustMPH,Humidity,HourlyPrecipIn,Conditions,Clouds,dailyrainin,SoftwareType,DateUTC
2013-03-03 00:00:00,27.7,16.3,30.08,West,270,1.7,4.6,62,0.00,CLR,,0.00,WeatherDisplay:10.37,2013-03-03 05:00:00,
2013-03-03 00:01:00,27.7,16.3,30.07,West,270,0.7,4.6,62,0.00,CLR,,0.00,WeatherDisplay:10.37,2013-03-03 05:01:00,
2013-03-03 00:06:00,27.7,16.3,30.08,West,270,0.7,4.6,62,0.00,CLR,,0.00,WeatherDisplay:10.37,2013-03-03 05:06:00,
2013-03-03 00:11:00,27.7,16.3,30.08,West,270,0.0,4.6,62,0.00,CLR,,0.00,WeatherDisplay:10.37,2013-03-03 05:11:00,
2013-03-03 00:16:00,27.7,16.3,30.08,West,270,0.7,1.1,62,0.00,CLR,,0.00,WeatherDisplay:10.37,2013-03-03 05:16:00,
2013-03-03 00:21:00,27.5,16.2,30.08,West,270,2.4,6.9,62,0.00,CLR,,0.00,WeatherDisplay:10.37,2013-03-03 05:21:00,
2013-03-03 00:26:00,27.5,16.2,30.09,West,270,2.4,4.6,62,0.00,CLR,,0.00,WeatherDisplay:10.37,2013-03-03 05:26:00,
2013-03-03 00:31:00,27.3,16.0,30.09,West,270,4.7,9.2,62,0.00,CLR,,0.00,WeatherDisplay:10.37,2013-03-03 05:31:00,
2013-03-03 00:36:00,27.3,15.6,30.10,West,270,4.0,6.9,61,0.00,CLR,,0.00,WeatherDisplay:10.37,2013-03-03 05:36:00,
2013-03-03 00:41:00,27.3,15.6,30.10,West,270,0.7,1.1,61,0.00,CLR,,0.00,WeatherDisplay:10.37,2013-03-03 05:41:00,
2013-03-03 00:46:00,27.3,16.0,30.10,West,270,0.7,1.1,62,0.00,CLR,,0.00,WeatherDisplay:10.37,2013-03-03 05:46:00,
2013-03-03 00:51:00,27.3,16.0,30.11,West,270,0.7,1.1,62,0.00,CLR,,0.00,WeatherDisplay:10.37,2013-03-03 05:51:00,
2013-03-03 00:56:00,27.3,16.0,30.11,West,270,2.4,4.7,62,0.00,CLR,,0.00,WeatherDisplay:10.37,2013-03-03 05:56:00,
2013-03-03 01:01:00,27.3,16.0,30.11,West,270,3.3,4.6,62,0.00,CLR,,0.00,WeatherDisplay:10.37,2013-03-03 06:01:00,
2013-03-03 01:06:00,27.3,16.0,30.12,West,270,3.3,4.6,62,0.00,CLR,,0.00,WeatherDisplay:10.37,2013-03-03 06:06:00,
2013-03-03 01:11:00,27.1,15.8,30.12,West,270,0.0,4.6,62,0.00,CLR,,0.00,WeatherDisplay:10.37,2013-03-03 06:11:00,
2013-03-03 01:16:00,27.0,15.3,30.12,West,270,1.7,6.9,61,0.00,CLR,,0.00,WeatherDisplay:10.37,2013-03-03 06:16:00,
2013-03-03 01:21:00,26.8,15.1,30.12,West,270,0.7,3.5,61,0.00,CLR,,0.00,WeatherDisplay:10.37,2013-03-03 06:21:00,
2013-03-03 01:26:00,26.8,15.1,30.12,West,270,3.3,5.8,61,0.00,CLR,,0.00,WeatherDisplay:10.37,2013-03-03 06:26:00,
2013-03-03 01:31:00,26.6,14.6,30.12,West,270,0.7,2.3,60,0.00,CLR,,0.00,WeatherDisplay:10.37,2013-03-03 06:31:00,
2013-03-03 01:36:00,26.6,14.6,30.12,South,180,0.7,4.6,60,0.00,CLR,,0.00,WeatherDisplay:10.37,2013-03-03 06:36:00,
2013-03-03 01:41:00,26.4,14.4,30.13,South,180,0.7,4.6,60,0.00,CLR,,0.00,WeatherDisplay:10.37,2013-03-03 06:41:00,
2013-03-03 01:46:00,26.4,14.4,30.13,South,180,0.7,3.5,60,0.00,CLR,,0.00,WeatherDisplay:10.37,2013-03-03 06:46:00,
2013-03-03 01:51:00,26.4,14.8,30.14,South,180,1.7,4.6,61,0.00,CLR,,0.00,WeatherDisplay:10.37,2013-03-03 06:51:00,
2013-03-03 01:56:00,26.4,14.4,30.13,SW,225,1.7,9.2,60,0.00,CLR,,0.00,WeatherDisplay:10.37,2013-03-03 06:56:00,
2013-03-03 02:01:00,26.2,13.8,30.14,SW,225,0.7,3.5,59,0.00,CLR,,0.00,WeatherDisplay:10.37,2013-03-03 07:01:00,
2013-03-03 02:06:00,26.2,13.8,30.14,SW,225,5.7,8.1,59,0.00,CLR,,0.00,WeatherDisplay:10.37,2013-03-03 07:06:00,
2013-03-03 02:11:00,26.1,13.3,30.14,SW,225,2.4,6.9,58,0.00,CLR,,0.00,WeatherDisplay:10.37,2013-03-03 07:11:00,
2013-03-03 02:16:00,25.9,13.1,30.14,SW,225,0.0,1.1,58,0.00,CLR,,0.00,WeatherDisplay:10.37,2013-03-03 07:16:00,
2013-03-03 02:21:00,26.1,13.7,30.14,SW,225,0.7,2.3,59,0.00,CLR,,0.00,WeatherDisplay:10.37,2013-03-03 07:21:00,
2013-03-03 02:26:00,25.9,13.5,30.15,SW,225,0.0,2.3,59,0.00,CLR,,0.00,WeatherDisplay:10.37,2013-03-03 07:26:00,
2013-03-03 02:31:00,26.1,13.7,30.15,SW,225,0.0,2.3,59,0.00,CLR,,0.00,WeatherDisplay:10.37,2013-03-03 07:31:00,
2013-03-03 02:36:00,26.1,13.7,30.15,West,270,2.4,4.6,59,0.00,CLR,,0.00,WeatherDisplay:10.37,2013-03-03 07:36:00,
2013-03-03 02:41:00,25.9,13.1,30.14,West,270,0.7,1.1,58,0.00,CLR,,0.00,WeatherDisplay:10.37,2013-03-03 07:41:00,
2013-03-03 02:46:00,25.9,13.1,30.15,West,270,1.7,4.6,58,0.00,CLR,,0.00,WeatherDisplay:10.37,2013-03-03 07:46:00,
2013-03-03 02:51:00,25.9,13.1,30.15,West,270,1.7,4.6,58,0.00,CLR,,0.00,WeatherDisplay:10.37,2013-03-03 07:51:00,
2013-03-03 02:56:00,25.7,12.9,30.15,West,270,1.7,6.9,58,0.00,CLR,,0.00,WeatherDisplay:10.37,2013-03-03 07:56:00,
2013-03-03 03:01:00,25.7,12.6,30.15,West,270,0.0,1.1,57,0.00,CLR,,0.00,WeatherDisplay:10.37,2013-03-03 08:01:00,
2013-03-03 03:06:00,25.7,12.6,30.15,West,270,0.0,1.1,57,0.00,CLR,,0.00,WeatherDisplay:10.37,2013-03-03 08:06:00,
2013-03-03 03:11:00,25.7,12.9,30.15,NW,315,4.0,5.8,58,0.00,CLR,,0.00,WeatherDisplay:10.37,2013-03-03 08:11:00,
2013-03-03 03:16:00,25.5,12.4,30.15,NW,315,0.0,1.1,57,0.00,CLR,,0.00,WeatherDisplay:10.37,2013-03-03 08:16:00,
2013-03-03 03:21:00,25.5,12.8,30.16,NW,315,0.7,4.6,58,0.00,CLR,,0.00,WeatherDisplay:10.37,2013-03-03 08:21:00,
2013-03-03 03:26:00,25.7,12.9,30.15,West,270,3.3,5.8,58,0.00,CLR,,0.00,WeatherDisplay:10.37,2013-03-03 08:26:00,
2013-03-03 03:31:00,25.5,12.4,30.15,West,270,0.7,1.1,57,0.00,CLR,,0.00,WeatherDisplay:10.37,2013-03-03 08:31:00,
2013-03-03 03:36:00,25.5,12.8,30.15,West,270,1.7,3.5,58,0.00,CLR,,0.00,WeatherDisplay:10.37,2013-03-03 08:36:00,
2013-03-03 03:41:00,25.3,12.6,30.16,West,270,0.0,2.3,58,0.00,CLR,,0.00,WeatherDisplay:10.37,2013-03-03 08:41:00,
2013-03-03 03:46:00,25.3,12.6,30.16,West,270,0.7,1.1,58,0.00,CLR,,0.00,WeatherDisplay:10.37,2013-03-03 08:46:00,
2013-03-03 03:51:00,25.2,12.4,30.16,West,270,0.7,3.5,58,0.00,CLR,,0.00,WeatherDisplay:10.37,2013-03-03 08:51:00,
2013-03-03 03:56:00,25.2,12.4,30.16,West,270,0.7,2.3,58,0.00,CLR,,0.00,WeatherDisplay:10.37,2013-03-03 08:56:00,
2013-03-03 04:01:00,25.0,12.3,30.16,West,270,2.4,4.6,58,0.00,CLR,,0.00,WeatherDisplay:10.37,2013-03-03 09:01:00,
2013-03-03 04:06:00,24.8,12.1,30.16,West,270,0.0,4.6,58,0.00,CLR,,0.00,WeatherDisplay:10.37,2013-03-03 09:06:00,
2013-03-03 04:11:00,24.8,12.1,30.16,West,270,0.7,3.5,58,0.00,CLR,,0.00,WeatherDisplay:10.37,2013-03-03 09:11:00,
2013-03-03 04:16:00,24.8,12.1,30.16,West,270,0.7,2.3,58,0.00,CLR,,0.00,WeatherDisplay:10.37,2013-03-03 09:16:00,
2013-03-03 04:21:00,24.6,12.3,30.16,West,270,1.7,2.3,59,0.00,CLR,,0.00,WeatherDisplay:10.37,2013-03-03 09:21:00,
2013-03-03 04:26:00,24.6,12.3,30.16,West,270,0.0,4.6,59,0.00,CLR,,0.00,WeatherDisplay:10.37,2013-03-03 09:26:00,
2013-03-03 04:31:00,24.6,12.3,30.16,West,270,1.7,4.6,59,0.00,CLR,,0.00,WeatherDisplay:10.37,2013-03-03 09:31:00,
2013-03-03 04:36:00,24.4,12.1,30.17,West,270,0.0,1.1,59,0.00,CLR,,0.00,WeatherDisplay:10.37,2013-03-03 09:36:00,
2013-03-03 04:41:00,24.4,12.1,30.17,West,270,1.7,3.5,59,0.00,CLR,,0.00,WeatherDisplay:10.37,2013-03-03 09:41:00,
2013-03-03 04:46:00,24.4,12.1,30.17,West,270,0.7,2.3,59,0.00,CLR,,0.00,WeatherDisplay:10.37,2013-03-03 09:46:00,
2013-03-03 04:51:00,24.3,12.0,30.17,West,270,1.7,3.5,59,0.00,CLR,,0.00,WeatherDisplay:10.37,2013-03-03 09:51:00,
2013-03-03 04:56:00,24.1,11.8,30.17,West,270,0.7,2.3,59,0.00,CLR,,0.00,WeatherDisplay:10.37,2013-03-03 09:56:00,
2013-03-03 05:01:00,23.9,11.6,30.17,West,270,0.7,1.1,59,0.00,CLR,,0.00,WeatherDisplay:10.37,2013-03-03 10:01:00,
2013-03-03 05:06:00,23.9,11.6,30.17,West,270,0.7,1.1,59,0.00,CLR,,0.00,WeatherDisplay:10.37,2013-03-03 10:06:00,
2013-03-03 05:11:00,23.7,11.8,30.17,West,270,0.0,2.3,60,0.00,CLR,,0.00,WeatherDisplay:10.37,2013-03-03 10:11:00,
2013-03-03 05:16:00,23.7,11.8,30.17,West,270,0.7,2.3,60,0.00,CLR,,0.00,WeatherDisplay:10.37,2013-03-03 10:16:00,
2013-03-03 05:21:00,23.7,11.8,30.17,West,270,0.7,2.3,60,0.00,CLR,,0.00,WeatherDisplay:10.37,2013-03-03 10:21:00,
2013-03-03 05:26:00,23.5,11.7,30.17,West,270,0.0,2.3,60,0.00,CLR,,0.00,WeatherDisplay:10.37,2013-03-03 10:26:00,
2013-03-03 05:31:00,23.5,11.7,30.17,West,270,1.7,2.3,60,0.00,CLR,,0.00,WeatherDisplay:10.37,2013-03-03 10:31:00,
2013-03-03 05:36:00,23.5,11.7,30.18,West,270,0.0,1.1,60,0.00,CLR,,0.00,WeatherDisplay:10.37,2013-03-03 10:36:00,
2013-03-03 05:41:00,23.7,11.8,30.18,West,270,0.0,1.1,60,0.00,CLR,,0.00,WeatherDisplay:10.37,2013-03-03 10:41:00,
2013-03-03 05:46:00,23.9,12.0,30.19,West,270,0.7,1.1,60,0.00,CLR,,0.00,WeatherDisplay:10.37,2013-03-03 10:46:00,
2013-03-03 05:51:00,23.9,12.0,30.19,West,270,0.0,1.1,60,0.00,CLR,,0.00,WeatherDisplay:10.37,2013-03-03 10:51:00,
2013-03-03 05:56:00,23.7,11.5,30.19,West,270,0.0,1.1,59,0.00,CLR,,0.00,WeatherDisplay:10.37,2013-03-03 10:56:00,
2013-03-03 06:01:00,23.7,11.5,30.19,West,270,0.7,1.1,59,0.00,CLR,,0.00,WeatherDisplay:10.37,2013-03-03 11:01:00,
2013-03-03 06:06:00,23.7,11.5,30.19,West,270,0.0,1.1,59,0.00,CLR,,0.00,WeatherDisplay:10.37,2013-03-03 11:06:00,
2013-03-03 06:11:00,23.5,11.3,30.19,West,270,0.0,1.1,59,0.00,CLR,,0.00,WeatherDisplay:10.37,2013-03-03 11:11:00,
2013-03-03 06:16:00,23.5,11.3,30.19,West,270,0.0,3.5,59,0.00,CLR,,0.00,WeatherDisplay:10.37,2013-03-03 11:16:00,
2013-03-03 06:21:00,23.7,11.8,30.20,West,270,0.7,2.3,60,0.00,CLR,,0.00,WeatherDisplay:10.37,2013-03-03 11:21:00,
2013-03-03 06:26:00,23.5,11.3,30.20,West,270,0.0,2.3,59,0.00,CLR,,0.00,WeatherDisplay:10.37,2013-03-03 11:26:00,
2013-03-03 06:31:00,23.4,11.1,30.19,West,270,0.7,3.5,59,0.00,CLR,,0.00,WeatherDisplay:10.37,2013-03-03 11:31:00,
2013-03-03 06:36:00,23.4,11.1,30.19,West,270,0.7,2.3,59,0.00,CLR,,0.00,WeatherDisplay:10.37,2013-03-03 11:36:00,
2013-03-03 06:41:00,23.4,11.5,30.19,West,270,0.0,2.3,60,0.00,CLR,,0.00,WeatherDisplay:10.37,2013-03-03 11:41:00,
2013-03-03 06:46:00,23.4,11.5,30.19,West,270,0.0,1.1,60,0.00,CLR,,0.00,WeatherDisplay:10.37,2013-03-03 11:46:00,
2013-03-03 06:51:00,23.4,11.5,30.18,West,270,0.0,1.1,60,0.00,CLR,,0.00,WeatherDisplay:10.37,2013-03-03 11:51:00,
2013-03-03 06:56:00,23.4,11.5,30.18,West,270,1.7,2.3,60,0.00,CLR,,0.00,WeatherDisplay:10.37,2013-03-03 11:56:00,
2013-03-03 07:01:00,23.4,11.5,30.18,West,270,0.7,1.1,60,0.00,CLR,,0.00,WeatherDisplay:10.37,2013-03-03 12:01:00,
2013-03-03 07:06:00,23.4,11.5,30.18,West,270,0.7,1.1,60,0.00,CLR,,0.00,WeatherDisplay:10.37,2013-03-03 12:06:00,
2013-03-03 07:11:00,23.2,11.3,30.18,West,270,0.0,1.1,60,0.00,CLR,,0.00,WeatherDisplay:10.37,2013-03-03 12:11:00,
2013-03-03 07:16:00,23.2,11.3,30.18,West,270,0.0,1.1,60,0.00,CLR,,0.00,WeatherDisplay:10.37,2013-03-03 12:16:00,
2013-03-03 07:22:00,23.2,11.7,30.18,West,270,1.7,1.7,61,0.00,CLR,,0.00,WeatherDisplay:10.37,2013-03-03 12:22:00,
2013-03-03 07:27:00,23.2,11.3,30.18,West,270,0.0,1.1,60,0.00,CLR,,0.00,WeatherDisplay:10.37,2013-03-03 12:27:00,
2013-03-03 07:32:00,23.4,11.9,30.18,West,270,0.0,1.1,61,0.00,CLR,,0.00,WeatherDisplay:10.37,2013-03-03 12:32:00,
2013-03-03 07:37:00,23.5,12.1,30.18,West,270,0.7,1.7,61,0.00,CLR,,0.00,WeatherDisplay:10.37,2013-03-03 12:37:00,
2013-03-03 07:42:00,23.5,12.1,30.18,West,270,0.7,1.1,61,0.00,CLR,,0.00,WeatherDisplay:10.37,2013-03-03 12:42:00,
2013-03-03 07:47:00,23.5,12.1,30.18,West,270,0.7,3.5,61,0.00,CLR,,0.00,WeatherDisplay:10.37,2013-03-03 12:47:00,
2013-03-03 07:52:00,23.5,11.7,30.19,West,270,0.7,1.1,60,0.00,CLR,,0.00,WeatherDisplay:10.37,2013-03-03 12:52:00,
2013-03-03 07:57:00,23.5,11.7,30.19,West,270,1.7,3.5,60,0.00,CLR,,0.00,WeatherDisplay:10.37,2013-03-03 12:57:00,
2013-03-03 08:02:00,23.7,11.8,30.19,West,270,0.7,3.5,60,0.00,CLR,,0.00,WeatherDisplay:10.37,2013-03-03 13:02:00,
2013-03-03 08:07:00,23.7,11.8,30.19,West,270,1.7,4.6,60,0.00,CLR,,0.00,WeatherDisplay:10.37,2013-03-03 13:07:00,
2013-03-03 08:12:00,23.7,11.8,30.19,West,270,2.4,2.4,60,0.00,CLR,,0.00,WeatherDisplay:10.37,2013-03-03 13:12:00,
2013-03-03 08:17:00,23.7,11.8,30.18,West,270,0.7,3.5,60,0.00,CLR,,0.00,WeatherDisplay:10.37,2013-03-03 13:17:00,
2013-03-03 08:22:00,23.9,12.0,30.18,West,270,0.7,2.3,60,0.00,CLR,,0.00,WeatherDisplay:10.37,2013-03-03 13:22:00,
2013-03-03 08:27:00,24.1,12.2,30.18,West,270,1.7,3.3,60,0.00,CLR,,0.00,WeatherDisplay:10.37,2013-03-03 13:27:00,
2013-03-03 08:32:00,24.3,12.4,30.17,West,270,0.7,2.3,60,0.00,CLR,,0.00,WeatherDisplay:10.37,2013-03-03 13:32:00,
2013-03-03 08:37:00,24.3,12.4,30.17,West,270,0.0,1.1,60,0.00,CLR,,0.00,WeatherDisplay:10.37,2013-03-03 13:37:00,
2013-03-03 08:42:00,24.4,12.5,30.17,West,270,1.7,1.7,60,0.00,CLR,,0.00,WeatherDisplay:10.37,2013-03-03 13:42:00,
2013-03-03 08:47:00,24.6,13.1,30.17,West,270,0.0,1.1,61,0.00,CLR,,0.00,WeatherDisplay:10.37,2013-03-03 13:47:00,
2013-03-03 08:52:00,24.8,12.9,30.17,West,270,0.7,1.1,60,0.00,CLR,,0.00,WeatherDisplay:10.37,2013-03-03 13:52:00,
2013-03-03 08:57:00,25.2,13.6,30.17,West,270,0.0,1.1,61,0.00,CLR,,0.00,WeatherDisplay:10.37,2013-03-03 13:57:00,
2013-03-03 09:02:00,25.5,14.3,30.17,West,270,0.0,1.1,62,0.00,CLR,,0.00,WeatherDisplay:10.37,2013-03-03 14:02:00,
2013-03-03 09:07:00,25.5,14.3,30.17,West,270,1.7,2.3,62,0.00,CLR,,0.00,WeatherDisplay:10.37,2013-03-03 14:07:00,
2013-03-03 09:12:00,25.3,13.8,30.17,West,270,0.7,2.3,61,0.00,CLR,,0.00,WeatherDisplay:10.37,2013-03-03 14:12:00,
2013-03-03 09:17:00,25.3,13.8,30.17,West,270,0.0,2.3,61,0.00,CLR,,0.00,WeatherDisplay:10.37,2013-03-03 14:17:00,
2013-03-03 09:22:00,25.5,14.3,30.17,West,270,0.7,1.1,62,0.00,CLR,,0.00,WeatherDisplay:10.37,2013-03-03 14:22:00,
2013-03-03 09:27:00,25.7,14.5,30.17,West,270,0.7,4.6,62,0.00,CLR,,0.00,WeatherDisplay:10.37,2013-03-03 14:27:00,
2013-03-03 09:32:00,25.9,14.6,30.17,West,270,0.0,1.1,62,0.00,CLR,,0.00,WeatherDisplay:10.37,2013-03-03 14:32:00,
2013-03-03 09:37:00,26.4,15.2,30.18,West,270,1.7,2.3,62,0.00,CLR,,0.00,WeatherDisplay:10.37,2013-03-03 14:37:00,
2013-03-03 09:42:00,26.1,14.8,30.18,West,270,0.7,2.3,62,0.00,CLR,,0.00,WeatherDisplay:10.37,2013-03-03 14:42:00,
2013-03-03 09:47:00,27.1,15.8,30.17,West,270,2.4,3.5,62,0.00,CLR,,0.00,WeatherDisplay:10.37,2013-03-03 14:47:00,
2013-03-03 09:52:00,27.7,16.0,30.17,West,270,0.7,2.3,61,0.00,CLR,,0.00,WeatherDisplay:10.37,2013-03-03 14:52:00,
2013-03-03 09:57:00,27.9,16.1,30.17,West,270,3.3,4.6,61,0.00,CLR,,0.00,WeatherDisplay:10.37,2013-03-03 14:57:00,
2013-03-03 10:02:00,28.4,17.8,30.17,West,270,0.7,1.1,64,0.00,CLR,,0.00,WeatherDisplay:10.37,2013-03-03 15:02:00,
2013-03-03 10:07:00,28.9,18.3,30.18,West,270,2.4,4.6,64,0.00,CLR,,0.00,WeatherDisplay:10.37,2013-03-03 15:07:00,
2013-03-03 10:12:00,28.6,17.2,30.18,West,270,1.7,3.5,62,0.00,CLR,,0.00,WeatherDisplay:10.37,2013-03-03 15:12:00,
2013-03-03 10:17:00,28.8,18.1,30.18,West,270,1.7,2.3,64,0.00,CLR,,0.00,WeatherDisplay:10.37,2013-03-03 15:17:00,
2013-03-03 10:22:00,29.3,18.6,30.19,West,270,2.4,4.6,64,0.00,CLR,,0.00,WeatherDisplay:10.37,2013-03-03 15:22:00,
2013-03-03 10:27:00,29.8,18.8,30.19,West,270,2.4,3.5,63,0.00,CLR,,0.00,WeatherDisplay:10.37,2013-03-03 15:27:00,
2013-03-03 10:32:00,31.3,20.5,30.18,West,270,0.7,3.5,64,0.00,CLR,,0.00,WeatherDisplay:10.37,2013-03-03 15:32:00,
2013-03-03 10:37:00,32.9,20.9,30.18,West,270,0.7,3.5,61,0.00,CLR,,0.00,WeatherDisplay:10.37,2013-03-03 15:37:00,
2013-03-03 10:42:00,33.3,19.7,30.18,West,270,1.7,3.5,57,0.00,CLR,,0.00,WeatherDisplay:10.37,2013-03-03 15:42:00,
2013-03-03 10:47:00,32.5,18.6,30.18,West,270,0.7,2.3,56,0.00,CLR,,0.00,WeatherDisplay:10.37,2013-03-03 15:47:00,
2013-03-03 10:52:00,33.3,20.1,30.18,West,270,1.7,4.6,58,0.00,CLR,,0.00,WeatherDisplay:10.37,2013-03-03 15:52:00,
2013-03-03 10:57:00,33.4,19.4,30.18,West,270,0.0,2.3,56,0.00,CLR,,0.00,WeatherDisplay:10.37,2013-03-03 15:57:00,
2013-03-03 11:02:00,34.7,20.2,30.18,West,270,0.0,1.1,55,0.00,CLR,,0.00,WeatherDisplay:10.37,2013-03-03 16:02:00,
2013-03-03 11:07:00,35.6,19.7,30.18,West,270,0.7,4.6,52,0.00,CLR,,0.00,WeatherDisplay:10.37,2013-03-03 16:07:00,
2013-03-03 11:12:00,35.8,19.9,30.18,West,270,0.7,1.1,52,0.00,CLR,,0.00,WeatherDisplay:10.37,2013-03-03 16:12:00,
2013-03-03 11:17:00,36.3,19.9,30.18,West,270,4.7,6.9,51,0.00,CLR,,0.00,WeatherDisplay:10.37,2013-03-03 16:17:00,
2013-03-03 11:22:00,34.3,17.6,30.18,West,270,0.7,4.6,50,0.00,CLR,,0.00,WeatherDisplay:10.37,2013-03-03 16:22:00,
2013-03-03 11:27:00,33.3,17.1,30.17,West,270,7.4,9.2,51,0.00,CLR,,0.00,WeatherDisplay:10.37,2013-03-03 16:27:00,
2013-03-03 11:32:00,33.6,18.3,30.17,West,270,4.0,6.9,53,0.00,CLR,,0.00,WeatherDisplay:10.37,2013-03-03 16:32:00,
2013-03-03 11:37:00,34.7,17.5,30.16,West,270,4.7,6.9,49,0.00,CLR,,0.00,WeatherDisplay:10.37,2013-03-03 16:37:00,
2013-03-03 11:42:00,34.7,16.5,30.15,West,270,2.4,10.4,47,0.00,CLR,,0.00,WeatherDisplay:10.37,2013-03-03 16:42:00,
2013-03-03 11:47:00,39.4,37.2,30.03,East,90,2.0,17.3,92,0.00,CLR,,0.00,WeatherDisplay:10.37,2013-03-03 16:47:00,
2013-03-03 11:52:00,33.6,15.5,30.13,West,270,4.7,8.1,47,0.00,CLR,,0.00,WeatherDisplay:10.37,2013-03-03 16:52:00,
2013-03-03 11:57:00,34.3,15.7,30.12,West,270,4.7,10.4,46,0.00,CLR,,0.00,WeatherDisplay:10.37,2013-03-03 16:57:00,
2013-03-03 12:02:00,33.8,15.2,30.11,West,270,3.3,6.9,46,0.00,CLR,,0.00,WeatherDisplay:10.37,2013-03-03 17:02:00,
2013-03-03 12:07:00,34.9,16.2,30.10,West,270,8.8,12.1,46,0.00,CLR,,0.00,WeatherDisplay:10.37,2013-03-03 17:07:00,
2013-03-03 12:12:00,35.2,16.0,30.09,West,270,3.3,6.9,45,0.00,CLR,,0.00,WeatherDisplay:10.37,2013-03-03 17:12:00,
2013-03-03 12:17:00,34.7,15.5,30.08,West,270,2.4,5.8,45,0.00,CLR,,0.00,WeatherDisplay:10.37,2013-03-03 17:17:00,
2013-03-03 12:22:00,34.3,15.7,30.07,West,270,2.4,9.2,46,0.00,CLR,,0.00,WeatherDisplay:10.37,2013-03-03 17:22:00,
2013-03-03 12:27:00,34.9,16.7,30.06,West,270,3.3,6.9,47,0.00,CLR,,0.00,WeatherDisplay:10.37,2013-03-03 17:27:00,
2013-03-03 12:32:00,33.6,15.0,30.05,West,270,4.7,10.4,46,0.00,CLR,,0.00,WeatherDisplay:10.37,2013-03-03 17:32:00,
2013-03-03 12:37:00,32.9,14.4,30.05,West,270,2.4,10.4,46,0.00,CLR,,0.00,WeatherDisplay:10.37,2013-03-03 17:37:00,
2013-03-03 12:42:00,32.9,14.4,30.04,West,270,4.0,6.9,46,0.00,CLR,,0.00,WeatherDisplay:10.37,2013-03-03 17:42:00,
2013-03-03 12:47:00,32.7,14.7,30.04,West,270,9.7,12.7,47,0.00,CLR,,0.00,WeatherDisplay:10.37,2013-03-03 17:47:00,
2013-03-03 12:52:00,33.3,14.7,30.02,West,270,6.4,12.7,46,0.00,CLR,,0.00,WeatherDisplay:10.37,2013-03-03 17:52:00,
2013-03-03 12:57:00,34.0,15.3,30.02,West,270,4.0,10.4,46,0.00,CLR,,0.00,WeatherDisplay:10.37,2013-03-03 17:57:00,
2013-03-03 13:02:00,33.6,14.5,30.01,West,270,2.4,9.2,45,0.00,CLR,,0.00,WeatherDisplay:10.37,2013-03-03 18:02:00,
2013-03-03 13:07:00,33.3,14.2,30.00,West,270,3.3,5.8,45,0.00,CLR,,0.00,WeatherDisplay:10.37,2013-03-03 18:07:00,
2013-03-03 13:12:00,33.6,14.5,30.00,West,270,4.7,9.2,45,0.00,CLR,,0.00,WeatherDisplay:10.37,2013-03-03 18:12:00,
2013-03-03 13:17:00,34.0,14.8,30.00,SW,225,6.4,12.7,45,0.00,CLR,,0.00,WeatherDisplay:10.37,2013-03-03 18:17:00,
2013-03-03 13:22:00,34.0,14.3,29.99,SW,225,5.7,9.2,44,0.00,CLR,,0.00,WeatherDisplay:10.37,2013-03-03 18:22:00,
2013-03-03 13:27:00,33.4,13.8,29.99,SW,225,4.7,8.1,44,0.00,CLR,,0.00,WeatherDisplay:10.37,2013-03-03 18:27:00,
2013-03-03 13:32:00,33.4,13.8,29.99,SW,225,1.7,5.8,44,0.00,CLR,,0.00,WeatherDisplay:10.37,2013-03-03 18:32:00,
2013-03-03 13:37:00,34.2,14.5,29.99,South,180,5.7,8.1,44,0.00,CLR,,0.00,WeatherDisplay:10.37,2013-03-03 18:37:00,
2013-03-03 13:42:00,34.3,14.1,29.98,South,180,7.4,11.5,43,0.00,CLR,,0.00,WeatherDisplay:10.37,2013-03-03 18:42:00,
2013-03-03 13:47:00,34.5,13.8,29.98,East,90,6.8,12.7,42,0.00,CLR,,0.00,WeatherDisplay:10.37,2013-03-03 18:47:00,
2013-03-03 13:52:00,34.3,13.6,29.98,East,90,6.8,10.4,42,0.00,CLR,,0.00,WeatherDisplay:10.37,2013-03-03 18:52:00,
2013-03-03 13:57:00,33.3,13.1,29.99,East,90,4.8,15.0,43,0.00,CLR,,0.00,WeatherDisplay:10.37,2013-03-03 18:57:00,
2013-03-03 14:02:00,33.8,13.6,29.99,East,90,6.8,12.7,43,0.00,CLR,,0.00,WeatherDisplay:10.37,2013-03-03 19:02:00,
2013-03-03 14:07:00,34.5,14.3,29.99,East,90,8.8,12.7,43,0.00,CLR,,0.00,WeatherDisplay:10.37,2013-03-03 19:07:00,
2013-03-03 14:12:00,34.2,13.4,29.99,NE,45,4.8,12.7,42,0.00,CLR,,0.00,WeatherDisplay:10.37,2013-03-03 19:12:00,
2013-03-03 14:17:00,33.3,13.1,29.99,NE,45,6.8,15.0,43,0.00,CLR,,0.00,WeatherDisplay:10.37,2013-03-03 19:17:00,
2013-03-03 14:22:00,33.4,13.8,29.99,NE,45,2.8,10.4,44,0.00,CLR,,0.00,WeatherDisplay:10.37,2013-03-03 19:22:00,
2013-03-03 14:27:00,34.7,14.5,30.00,NE,45,8.8,18.4,43,0.00,CLR,,0.00,WeatherDisplay:10.37,2013-03-03 19:27:00,
2013-03-03 14:32:00,34.5,13.8,30.00,NE,45,6.8,9.2,42,0.00,CLR,,0.00,WeatherDisplay:10.37,2013-03-03 19:32:00,
2013-03-03 14:37:00,35.8,13.8,30.00,NE,45,2.8,15.0,40,0.00,CLR,,0.00,WeatherDisplay:10.37,2013-03-03 19:37:00,
2013-03-03 14:42:00,36.0,11.6,30.00,North,0,4.0,13.8,36,0.00,CLR,,0.00,WeatherDisplay:10.37,2013-03-03 19:42:00,
2013-03-03 14:47:00,36.5,10.7,30.00,North,0,7.7,13.8,34,0.00,CLR,,0.00,WeatherDisplay:10.37,2013-03-03 19:47:00,
2013-03-03 14:52:00,36.1,9.8,30.00,North,0,9.7,11.5,33,0.00,CLR,,0.00,WeatherDisplay:10.37,2013-03-03 19:52:00,
2013-03-03 14:57:00,35.4,7.7,30.00,North,0,9.7,15.0,31,0.00,CLR,,0.00,WeatherDisplay:10.37,2013-03-03 19:57:00,
2013-03-03 15:02:00,35.2,8.3,30.00,North,0,4.8,12.7,32,0.00,CLR,,0.00,WeatherDisplay:10.37,2013-03-03 20:02:00,
2013-03-03 15:07:00,35.4,10.4,30.01,North,0,6.8,9.2,35,0.00,CLR,,0.00,WeatherDisplay:10.37,2013-03-03 20:07:00,
2013-03-03 15:12:00,35.6,9.3,30.01,North,0,6.8,10.5,33,0.00,CLR,,0.00,WeatherDisplay:10.37,2013-03-03 20:12:00,
2013-03-03 15:17:00,35.6,8.6,30.00,North,0,2.8,9.2,32,0.00,CLR,,0.00,WeatherDisplay:10.37,2013-03-03 20:17:00,
2013-03-03 15:22:00,36.1,9.8,30.00,North,0,5.7,9.2,33,0.00,CLR,,0.00,WeatherDisplay:10.37,2013-03-03 20:22:00,
2013-03-03 15:27:00,36.0,8.2,30.00,NW,315,7.4,9.2,31,0.00,CLR,,0.00,WeatherDisplay:10.37,2013-03-03 20:27:00,
2013-03-03 15:32:00,35.1,8.1,30.00,NW,315,4.7,15.0,32,0.00,CLR,,0.00,WeatherDisplay:10.37,2013-03-03 20:32:00,
2013-03-03 15:37:00,35.1,8.8,30.00,West,270,4.0,9.2,33,0.00,CLR,,0.00,WeatherDisplay:10.37,2013-03-03 20:37:00,
2013-03-03 15:42:00,35.1,9.5,30.00,SW,225,3.3,12.7,34,0.00,CLR,,0.00,WeatherDisplay:10.37,2013-03-03 20:42:00,
2013-03-03 15:47:00,34.9,8.6,30.00,SW,225,9.7,9.7,33,0.00,CLR,,0.00,WeatherDisplay:10.37,2013-03-03 20:47:00,
2013-03-03 15:52:00,34.7,8.5,30.00,WSW,248,7.4,8.1,33,0.00,CLR,,0.00,WeatherDisplay:10.37,2013-03-03 20:52:00,
2013-03-03 15:57:00,35.1,8.8,30.00,SW,225,4.0,9.2,33,0.00,CLR,,0.00,WeatherDisplay:10.37,2013-03-03 20:57:00,
2013-03-03 16:02:00,35.1,8.8,30.00,SW,225,2.4,13.8,33,0.00,CLR,,0.00,WeatherDisplay:10.37,2013-03-03 21:02:00,
2013-03-03 16:07:00,35.2,9.0,29.99,SE,135,5.7,5.8,33,0.00,CLR,,0.00,WeatherDisplay:10.37,2013-03-03 21:07:00,
2013-03-03 16:12:00,35.4,9.8,29.99,East,90,5.7,10.4,34,0.00,CLR,,0.00,WeatherDisplay:10.37,2013-03-03 21:12:00,
2013-03-03 16:17:00,34.9,10.0,29.99,East,90,7.7,10.4,35,0.00,CLR,,0.00,WeatherDisplay:10.37,2013-03-03 21:17:00,
2013-03-03 16:22:00,35.1,10.1,29.99,East,90,10.5,10.5,35,0.00,CLR,,0.00,WeatherDisplay:10.37,2013-03-03 21:22:00,
2013-03-03 16:27:00,34.5,10.3,29.98,East,90,8.8,9.2,36,0.00,CLR,,0.00,WeatherDisplay:10.37,2013-03-03 21:27:00,
2013-03-03 16:32:00,34.3,10.7,29.97,NE,45,6.8,9.2,37,0.00,CLR,,0.00,WeatherDisplay:10.37,2013-03-03 21:32:00,
2013-03-03 16:37:00,34.9,11.8,29.96,North,0,5.7,8.1,38,0.00,CLR,,0.00,WeatherDisplay:10.37,2013-03-03 21:37:00,
2013-03-03 16:42:00,35.1,12.0,29.96,North,0,6.8,9.2,38,0.00,CLR,,0.00,WeatherDisplay:10.37,2013-03-03 21:42:00,
2013-03-03 16:47:00,34.2,9.9,29.95,North,0,10.5,10.5,36,0.00,CLR,,0.00,WeatherDisplay:10.37,2013-03-03 21:47:00,
2013-03-03 16:52:00,34.2,10.6,29.95,North,0,4.8,8.1,37,0.00,CLR,,0.00,WeatherDisplay:10.37,2013-03-03 21:52:00,
2013-03-03 16:57:00,34.2,10.6,29.95,NW,315,5.7,16.1,37,0.00,CLR,,0.00,WeatherDisplay:10.37,2013-03-03 21:57:00,
2013-03-03 17:02:00,34.0,9.8,29.94,NW,315,3.3,10.4,36,0.00,CLR,,0.00,WeatherDisplay:10.37,2013-03-03 22:02:00,
2013-03-03 17:07:00,33.8,9.0,29.94,NW,315,4.0,6.9,35,0.00,CLR,,0.00,WeatherDisplay:10.37,2013-03-03 22:07:00,
2013-03-03 17:12:00,33.8,9.0,29.94,NW,315,4.7,9.2,35,0.00,CLR,,0.00,WeatherDisplay:10.37,2013-03-03 22:12:00,
2013-03-03 17:18:00,33.4,9.9,29.93,NW,315,4.0,9.2,37,0.00,CLR,,0.00,WeatherDisplay:10.37,2013-03-03 22:18:00,
2013-03-03 17:23:00,33.3,11.5,29.93,NW,315,3.3,6.9,40,0.00,CLR,,0.00,WeatherDisplay:10.37,2013-03-03 22:23:00,
2013-03-03 17:28:00,33.3,12.1,29.93,NW,315,3.3,6.9,41,0.00,CLR,,0.00,WeatherDisplay:10.37,2013-03-03 22:28:00,
2013-03-03 17:33:00,33.1,13.0,29.93,NW,315,4.0,6.9,43,0.00,CLR,,0.00,WeatherDisplay:10.37,2013-03-03 22:33:00,
2013-03-03 17:38:00,33.1,13.0,29.93,West,270,2.4,4.6,43,0.00,CLR,,0.00,WeatherDisplay:10.37,2013-03-03 22:38:00,
2013-03-03 17:43:00,32.7,12.7,29.93,West,270,2.4,9.2,43,0.00,CLR,,0.00,WeatherDisplay:10.37,2013-03-03 22:43:00,
2013-03-03 17:48:00,32.2,12.2,29.93,West,270,4.7,8.1,43,0.00,CLR,,0.00,WeatherDisplay:10.37,2013-03-03 22:48:00,
2013-03-03 17:53:00,31.8,12.4,29.92,West,270,4.0,6.9,44,0.00,CLR,,0.00,WeatherDisplay:10.37,2013-03-03 22:53:00,
2013-03-03 17:58:00,31.6,12.2,29.92,West,270,5.7,6.9,44,0.00,CLR,,0.00,WeatherDisplay:10.37,2013-03-03 22:58:00,
2013-03-03 18:03:00,30.9,11.5,29.92,West,270,4.0,9.2,44,0.00,CLR,,0.00,WeatherDisplay:10.37,2013-03-03 23:03:00,
2013-03-03 18:08:00,30.4,11.5,29.92,West,270,6.4,9.2,45,0.00,CLR,,0.00,WeatherDisplay:10.37,2013-03-03 23:08:00,
2013-03-03 18:13:00,29.8,11.5,29.92,West,270,3.3,6.9,46,0.00,CLR,,0.00,WeatherDisplay:10.37,2013-03-03 23:13:00,
2013-03-03 18:18:00,29.8,12.0,29.92,West,270,3.3,4.6,47,0.00,CLR,,0.00,WeatherDisplay:10.37,2013-03-03 23:18:00,
2013-03-03 18:23:00,29.5,11.7,29.92,West,270,4.0,5.8,47,0.00,CLR,,0.00,WeatherDisplay:10.37,2013-03-03 23:23:00,
2013-03-03 18:28:00,29.1,11.8,29.92,West,270,4.7,5.8,48,0.00,CLR,,0.00,WeatherDisplay:10.37,2013-03-03 23:28:00,
2013-03-03 18:33:00,28.6,11.8,29.93,West,270,2.4,4.6,49,0.00,CLR,,0.00,WeatherDisplay:10.37,2013-03-03 23:33:00,
2013-03-03 18:38:00,27.9,9.2,29.93,West,270,1.7,6.9,45,0.00,CLR,,0.00,WeatherDisplay:10.37,2013-03-03 23:38:00,
2013-03-03 18:43:00,27.7,9.6,29.94,West,270,3.3,5.7,46,0.00,CLR,,0.00,WeatherDisplay:10.37,2013-03-03 23:43:00,
2013-03-03 18:48:00,27.5,9.9,29.94,West,270,2.4,8.1,47,0.00,CLR,,0.00,WeatherDisplay:10.37,2013-03-03 23:48:00,
2013-03-03 18:53:00,27.3,10.2,29.95,NW,315,4.0,6.9,48,0.00,CLR,,0.00,WeatherDisplay:10.37,2013-03-03 23:53:00,
2013-03-03 18:58:00,27.1,10.0,29.96,West,270,5.7,9.2,48,0.00,CLR,,0.00,WeatherDisplay:10.37,2013-03-03 23:58:00,
2013-03-03 19:03:00,27.1,10.5,29.96,NW,315,1.7,3.5,49,0.00,CLR,,0.00,WeatherDisplay:10.37,2013-03-04 00:03:00,
2013-03-03 19:08:00,27.1,10.9,29.96,NW,315,1.7,5.8,50,0.00,CLR,,0.00,WeatherDisplay:10.37,2013-03-04 00:08:00,
2013-03-03 19:13:00,27.3,11.5,29.97,NW,315,3.3,5.8,51,0.00,CLR,,0.00,WeatherDisplay:10.37,2013-03-04 00:13:00,
2013-03-03 19:18:00,27.3,11.5,29.97,West,270,1.7,3.5,51,0.00,CLR,,0.00,WeatherDisplay:10.37,2013-03-04 00:18:00,
2013-03-03 19:23:00,27.0,11.2,29.98,WNW,292,5.7,8.8,51,0.00,CLR,,0.00,WeatherDisplay:10.37,2013-03-04 00:23:00,
2013-03-03 19:28:00,26.8,10.6,29.99,West,270,2.4,4.6,50,0.00,CLR,,0.00,WeatherDisplay:10.37,2013-03-04 00:28:00,
2013-03-03 19:33:00,26.6,10.9,29.99,West,270,3.3,4.6,51,0.00,CLR,,0.00,WeatherDisplay:10.37,2013-03-04 00:33:00,
2013-03-03 19:38:00,26.6,10.9,29.99,West,270,0.7,2.3,51,0.00,CLR,,0.00,WeatherDisplay:10.37,2013-03-04 00:38:00,
2013-03-03 19:43:00,26.6,10.9,29.99,West,270,1.7,4.6,51,0.00,CLR,,0.00,WeatherDisplay:10.37,2013-03-04 00:43:00,
2013-03-03 19:48:00,26.6,10.9,30.00,WNW,292,1.7,4.6,51,0.00,CLR,,0.00,WeatherDisplay:10.37,2013-03-04 00:48:00,
2013-03-03 19:53:00,26.4,11.2,30.00,West,270,1.7,8.1,52,0.00,CLR,,0.00,WeatherDisplay:10.37,2013-03-04 00:53:00,
2013-03-03 19:58:00,26.2,11.0,30.00,West,270,0.7,4.6,52,0.00,CLR,,0.00,WeatherDisplay:10.37,2013-03-04 00:58:00,
2013-03-03 20:03:00,26.1,10.8,30.01,NW,315,3.3,5.8,52,0.00,CLR,,0.00,WeatherDisplay:10.37,2013-03-04 01:03:00,
2013-03-03 20:08:00,26.1,10.8,30.01,NW,315,0.7,3.5,52,0.00,CLR,,0.00,WeatherDisplay:10.37,2013-03-04 01:08:00,
2013-03-03 20:13:00,25.9,10.6,30.02,NW,315,0.7,3.5,52,0.00,CLR,,0.00,WeatherDisplay:10.37,2013-03-04 01:13:00,
2013-03-03 20:18:00,25.9,10.6,30.01,NW,315,0.7,2.3,52,0.00,CLR,,0.00,WeatherDisplay:10.37,2013-03-04 01:18:00,
2013-03-03 20:23:00,25.9,11.1,30.02,NW,315,0.7,2.3,53,0.00,CLR,,0.00,WeatherDisplay:10.37,2013-03-04 01:23:00,
2013-03-03 20:28:00,25.7,10.9,30.02,NW,315,0.7,3.5,53,0.00,CLR,,0.00,WeatherDisplay:10.37,2013-03-04 01:28:00,
2013-03-03 20:33:00,25.5,10.7,30.03,NW,315,1.7,4.6,53,0.00,CLR,,0.00,WeatherDisplay:10.37,2013-03-04 01:33:00,
2013-03-03 20:38:00,25.7,10.9,30.03,WNW,292,2.4,4.6,53,0.00,CLR,,0.00,WeatherDisplay:10.37,2013-03-04 01:38:00,
2013-03-03 20:43:00,25.5,10.7,30.03,NW,315,1.7,3.5,53,0.00,CLR,,0.00,WeatherDisplay:10.37,2013-03-04 01:43:00,
2013-03-03 20:48:00,25.5,10.7,30.03,NW,315,1.7,3.5,53,0.00,CLR,,0.00,WeatherDisplay:10.37,2013-03-04 01:48:00,
2013-03-03 20:53:00,25.5,11.2,30.03,NW,315,2.4,4.6,54,0.00,CLR,,0.00,WeatherDisplay:10.37,2013-03-04 01:53:00,
2013-03-03 20:58:00,25.3,11.0,30.03,NW,315,0.7,2.3,54,0.00,CLR,,0.00,WeatherDisplay:10.37,2013-03-04 01:58:00,
2013-03-03 21:03:00,25.3,11.0,30.02,NW,315,2.4,3.5,54,0.00,CLR,,0.00,WeatherDisplay:10.37,2013-03-04 02:03:00,
2013-03-03 21:08:00,25.3,11.0,30.02,WNW,292,0.7,2.3,54,0.00,CLR,,0.00,WeatherDisplay:10.37,2013-03-04 02:08:00,
2013-03-03 21:13:00,25.2,10.8,30.01,WNW,292,0.7,4.6,54,0.00,CLR,,0.00,WeatherDisplay:10.37,2013-03-04 02:13:00,
2013-03-03 21:18:00,25.2,10.8,30.01,WNW,292,0.7,2.3,54,0.00,CLR,,0.00,WeatherDisplay:10.37,2013-03-04 02:18:00,
2013-03-03 21:23:00,25.2,11.2,30.01,NW,315,2.4,4.6,55,0.00,CLR,,0.00,WeatherDisplay:10.37,2013-03-04 02:23:00,
2013-03-03 21:28:00,25.0,11.1,30.00,NW,315,2.4,2.4,55,0.00,CLR,,0.00,WeatherDisplay:10.37,2013-03-04 02:28:00,
2013-03-03 21:33:00,25.0,11.1,30.00,NW,315,1.7,3.5,55,0.00,CLR,,0.00,WeatherDisplay:10.37,2013-03-04 02:33:00,
2013-03-03 21:38:00,24.8,10.9,30.00,NW,315,0.7,3.5,55,0.00,CLR,,0.00,WeatherDisplay:10.37,2013-03-04 02:38:00,
2013-03-03 21:43:00,25.0,11.1,30.00,NW,315,1.7,2.3,55,0.00,CLR,,0.00,WeatherDisplay:10.37,2013-03-04 02:43:00,
2013-03-03 21:48:00,24.8,10.9,30.00,NW,315,0.7,2.3,55,0.00,CLR,,0.00,WeatherDisplay:10.37,2013-03-04 02:48:00,
2013-03-03 21:53:00,24.6,11.1,30.00,NW,315,0.7,4.6,56,0.00,CLR,,0.00,WeatherDisplay:10.37,2013-03-04 02:53:00,
2013-03-03 21:58:00,24.6,11.5,30.00,WNW,292,3.3,3.3,57,0.00,CLR,,0.00,WeatherDisplay:10.37,2013-03-04 02:58:00,
2013-03-03 22:03:00,24.6,11.5,30.00,WNW,292,1.7,2.3,57,0.00,CLR,,0.00,WeatherDisplay:10.37,2013-03-04 03:03:00,
2013-03-03 22:08:00,24.8,11.3,30.00,WNW,292,0.0,2.3,56,0.00,CLR,,0.00,WeatherDisplay:10.37,2013-03-04 03:08:00,
2013-03-03 22:13:00,24.8,11.7,30.00,WNW,292,0.0,3.5,57,0.00,CLR,,0.00,WeatherDisplay:10.37,2013-03-04 03:13:00,
2013-03-03 22:18:00,24.8,11.7,30.00,WNW,292,0.0,1.1,57,0.00,CLR,,0.00,WeatherDisplay:10.37,2013-03-04 03:18:00,
2013-03-03 22:23:00,24.8,11.7,29.99,WNW,292,0.0,1.1,57,0.00,CLR,,0.00,WeatherDisplay:10.37,2013-03-04 03:23:00,
2013-03-03 22:28:00,24.6,11.9,29.99,WNW,292,0.0,0.0,58,0.00,CLR,,0.00,WeatherDisplay:10.37,2013-03-04 03:28:00,
2013-03-03 22:33:00,24.6,12.3,29.99,WNW,292,0.7,1.1,59,0.00,CLR,,0.00,WeatherDisplay:10.37,2013-03-04 03:33:00,
2013-03-03 22:38:00,24.6,12.7,29.99,WNW,292,0.7,1.1,60,0.00,CLR,,0.00,WeatherDisplay:10.37,2013-03-04 03:38:00,
2013-03-03 22:43:00,24.6,12.3,29.99,NW,315,1.7,4.6,59,0.00,CLR,,0.00,WeatherDisplay:10.37,2013-03-04 03:43:00,
2013-03-03 22:48:00,24.6,12.3,29.98,NW,315,0.7,1.1,59,0.00,CLR,,0.00,WeatherDisplay:10.37,2013-03-04 03:48:00,
2013-03-03 22:53:00,24.6,12.3,29.97,NW,315,1.7,1.7,59,0.00,CLR,,0.00,WeatherDisplay:10.37,2013-03-04 03:53:00,
2013-03-03 22:58:00,24.6,12.7,29.97,WNW,292,1.7,3.5,60,0.00,CLR,,0.00,WeatherDisplay:10.37,2013-03-04 03:58:00,
2013-03-03 23:03:00,24.6,12.7,29.98,West,270,2.4,6.9,60,0.00,CLR,,0.00,WeatherDisplay:10.37,2013-03-04 04:03:00,
2013-03-03 23:08:00,24.8,12.5,29.98,NW,315,2.4,4.6,59,0.00,CLR,,0.00,WeatherDisplay:10.37,2013-03-04 04:08:00,
2013-03-03 23:13:00,25.2,12.8,29.99,West,270,0.7,4.6,59,0.00,CLR,,0.00,WeatherDisplay:10.37,2013-03-04 04:13:00,
2013-03-03 23:18:00,25.3,13.0,29.99,NW,315,1.7,2.3,59,0.00,CLR,,0.00,WeatherDisplay:10.37,2013-03-04 04:18:00,
2013-03-03 23:23:00,25.5,12.8,29.99,West,270,0.7,3.5,58,0.00,CLR,,0.00,WeatherDisplay:10.37,2013-03-04 04:23:00,
2013-03-03 23:28:00,25.5,12.8,30.00,NW,315,1.7,4.6,58,0.00,CLR,,0.00,WeatherDisplay:10.37,2013-03-04 04:28:00,
2013-03-03 23:33:00,25.5,12.8,30.00,NW,315,1.7,3.5,58,0.00,CLR,,0.00,WeatherDisplay:10.37,2013-03-04 04:33:00,
2013-03-03 23:38:00,25.7,12.9,30.00,NW,315,0.7,3.5,58,0.00,CLR,,0.00,WeatherDisplay:10.37,2013-03-04 04:38:00,
2013-03-03 23:43:00,25.7,12.9,30.00,NW,315,1.7,1.7,58,0.00,CLR,,0.00,WeatherDisplay:10.37,2013-03-04 04:43:00,
2013-03-03 23:48:00,25.7,12.9,30.01,NW,315,1.7,4.6,58,0.00,CLR,,0.00,WeatherDisplay:10.37,2013-03-04 04:48:00,
2013-03-03 23:53:00,25.7,12.9,30.01,NW,315,3.3,3.3,58,0.00,CLR,,0.00,WeatherDisplay:10.37,2013-03-04 04:53:00,
2013-03-03 23:58:00,25.5,12.8,30.02,NW,315,0.7,4.6,58,0.00,CLR,,0.00,WeatherDisplay:10.37,2013-03-04 04:58:00,